Regional Weather Roundup
Issued by NWS

Home | Current Version | Previous Version | Graphics & Text | Print | Product List | Glossary On
Versions: 1 2 3 4 5 6 7 8 9 10 11 12 13 14 15 16 17 18 19 20 21 22 23 24 25 26 27 28 29 30 31 32 33 34 35 36 37 38 39 40 41 42 43 44 45 46 47 48 49 50
000
ASUS43 KLOT 190603
RWRIL

ILLINOIS REGIONAL WEATHER ROUNDUP
NATIONAL WEATHER SERVICE CHICAGO/ROMEOVILLE IL
1200 AM CST SUN FEB 19 2017

NOTE: "FAIR" INDICATES FEW OR NO CLOUDS BELOW 12,000 FEET WITH NO
SIGNIFICANT WEATHER AND/OR OBSTRUCTIONS TO VISIBILITY.

* THESE STATIONS ARE NOT UNDER NWS QUALITY CONTROL. THEY ALSO MAY NOT
  REPORT WEATHER SUCH AS PRECIPITATION OR FOG.

ILZ001-002-007-009-015-016-024-190700-
NORTHWEST ILLINOIS

CITY           SKY/WX    TMP DP  RH WIND       PRES   REMARKS
MOLINE         CLEAR     34  28  79 CALM      29.87R
6HR MIN TEMP:  34; 6HR MAX TEMP:  61;

STERLING*      CLEAR     33  31  92 CALM      29.88R
$$

ILZ003-004-008-010-011-017-018-190700-
NORTH CENTRAL ILLINOIS

CITY           SKY/WX    TMP DP  RH WIND       PRES   REMARKS
ROCKFORD       CLEAR     37  32  82 CALM      29.89R
6HR MIN TEMP:  37; 6HR MAX TEMP:  56;

FREEPORT*      CLEAR     35  32  90 CALM      29.90R
ROCHELLE*      CLEAR     31  31  96 CALM      29.87R
DE KALB*       CLEAR     42  37  83 NW3       29.87R
$$

ILZ005-006-012>014-019>023-190700-
NORTHEAST ILLINOIS

CITY           SKY/WX    TMP DP  RH WIND       PRES   REMARKS
CHICAGO-OHARE  CLEAR     41  34  76 CALM      29.85R
6HR MIN TEMP:  40; 6HR MAX TEMP:  61;

CHICAGO-MIDWAY CLEAR     46  34  62 CALM      29.85R
6HR MIN TEMP:  45; 6HR MAX TEMP:  62;

AURORA         CLEAR     36  32  85 N3        29.86S
6HR MIN TEMP:  34; 6HR MAX TEMP:  54;

LANSING*       CLEAR     38  37  96 CALM      29.86R
WAUKEGAN       CLEAR     42  38  85 W6        29.85R
6HR MIN TEMP:  36; 6HR MAX TEMP:  49;

DUPAGE AIRPORT CLEAR     38  31  76 CALM      29.85R
6HR MIN TEMP:  37; 6HR MAX TEMP:  55;

WHEELING       CLEAR     36  32  85 CALM      29.87R
6HR MIN TEMP:  36; 6HR MAX TEMP:  57;

MORRIS*        CLEAR     41  34  74 CALM      29.85R
NORTHERLY ISL    N/A     50  31  48 W5          N/A
$$

LMZ740>746-190700-
SOUTHERN LAKE MICHIGAN

STATION/POSITION SKY/WX   TEMP    WIND        PRES    VSBY  WAVE
                          AIR SEA DIR/SP/G                  HT/PER
                          (F)     (DEG/KT/KT) (MB)    (MI)  (FT/S)
HARRISON CRIB              55     280/  8/  8   N/A
BURNHAM HARBOR             49     280/  2/  5   N/A
CALUMET HARBOR             45     250/  2/  3 1010.5R
BURNS HARBOR               40     270/  7/  7 1011.5R
MICHIGAN CITY              45     210/  2/  2   N/A
$$

ILZ025>027-034>036-040-047-049-050-058-095>099-190700-
WEST-CENTRAL ILLINOIS

CITY           SKY/WX    TMP DP  RH WIND       PRES   REMARKS
QUINCY         CLEAR     50  43  77 S7        29.87R
GALESBURG*     CLOUDY    37  32  83 CALM        N/A
MACOMB*        CLEAR     37  33  85 CALM      29.89R
JACKSONVILLE*  CLEAR     45  41  87 S5        29.88S
PITTSFIELD*    CLEAR     44  39  83 SW3       29.89R
$$

ILZ028>032-037-038-041>044-048-051>054-059>061-190700-
CENTRAL ILLINOIS

CITY           SKY/WX    TMP DP  RH WIND       PRES   REMARKS
PONTIAC        CLEAR     39  37  93 CALM      29.88R
BLOOMINGTON    CLEAR     44  42  93 SW10      29.89R
DECATUR        FOG       50  49  96 SW13      29.90S VSB 1
PEORIA         CLEAR     42  37  82 CALM      29.88R
6HR MIN TEMP:  42; 6HR MAX TEMP:  61;

SPRINGFIELD    CLEAR     47  44  90 S6        29.89S FOG
6HR MIN TEMP:  46; 6HR MAX TEMP:  60;

TAYLORVILLE    NOT AVBL
$$

ILZ033-039-045-046-055>057-062-063-190700-
EAST-CENTRAL ILLINOIS

CITY           SKY/WX    TMP DP  RH WIND       PRES   REMARKS
CHAMPAIGN      FOG       49  47  93 SW14      29.90R VSB 1/4
MATTOON        CLOUDY    51  50  96 SW12      29.91R FOG
PARIS*         CLOUDY    49  48  96 SW12      29.92R
$$

ILZ079-100>102-190700-
SOUTHWEST ILLINOIS

CITY           SKY/WX    TMP DP  RH WIND       PRES   REMARKS
BELLEVILLE     CLEAR     45  45 100 CALM      29.91S FOG
CAHOKIA*       FOG       46  45  96 S3        29.91S VSB 3/4
SPARTA*        CLOUDY    52  50  95 SW9       29.94R
$$

ILZ064>066-069>071-074>076-080>082-084>086-088>090-092>094-190700-
SOUTH-CENTRAL ILLINOIS

CITY           SKY/WX    TMP DP  RH WIND       PRES   REMARKS
CARBONDALE     CLOUDY    51  51 100 S7        29.94S FOG
6HR MIN TEMP:  46; 6HR MAX TEMP:  51;

CAIRO*         FOG       45  45 100 CALM      29.95S VSB<1/4
MARION         CLOUDY    52  52 100 S6        29.95S FOG
MT. VERNON     CLOUDY    50  50 100 SW8       29.95R FOG
CENTRALIA*     CLOUDY    52  51  96 SW7       29.94R
SALEM*         CLOUDY    53  50  89 S7        29.94R
$$

ILZ067-068-072-073-078-083-087-091-190700-
SOUTHEAST ILLINOIS

CITY           SKY/WX    TMP DP  RH WIND       PRES   REMARKS
LAWRENCEVILLE  FOG       41  40  96 SW5       29.95R VSB 1/4
FLORA*         CLOUDY    52  50  92 W5        29.95R
HARRISBURG*    FOG       49  49 100 SW3       29.95F VSB 1
ROBINSON*      CLOUDY    48  47  97 SW9       29.95R
CARMI*           N/A     44  44 100 SW3       29.94S FOG
$$

ABBREVIATIONS USED IN REMARKS
   TC - TEMPERATURE IN CELSIUS
  WCI - WIND CHILL INDEX
   HX - HEAT INDEX
  VSB - VISIBILITY
$$





USA.gov is the U.S. government's official web portal to all federal, state and local government web resources and services.